DateTimeUTC,F1_A11,F1_S11,BsB_S11,BsG_S11,BsR_S11,BbsB_S11,BbsG_S11,BbsR_S11,BaB_A11,BaG_A11,BaR_A11,Tu_S11,T_S11,Uu_S11,U_S11,P_S11,T1_A11
2021-03-17T17:00:00Z,00040200,20000000,,,,,,,-000.19,-000.21,0000.02,17.3,24.5,01.6,01.0,0652.6,30.9
2021-03-17T17:01:00Z,00040200,20000000,,,,,,,-000.02,0000.37,0000.50,17.3,24.5,01.6,01.0,0652.6,30.9
2021-03-17T17:02:00Z,00040200,20000000,,,,,,,-000.07,-000.71,-000.66,17.3,24.5,01.6,01.0,0652.6,30.9
2021-03-17T17:03:00Z,00040200,60000000,,,,,,,-000.01,0000.35,0000.25,17.3,24.6,01.6,01.0,0652.6,30.9
2021-03-17T17:04:00Z,00040200,41000000,0000.10,0000.12,0000.17,-000.07,-000.08,0000.09,0000.41,-000.00,0000.32,17.4,24.4,01.7,01.1,0653.5,30.9
2021-03-17T17:05:00Z,00040200,01000000,0000.02,0000.02,0000.08,-000.34,-000.12,0000.32,-000.24,0000.04,0000.04,17.4,24.3,01.8,01.2,0653.5,30.9
2021-03-17T17:06:00Z,00040200,01000000,0000.33,0000.08,0000.10,0000.02,0000.21,0000.06,0000.57,0000.74,-000.34,17.4,24.3,01.7,01.1,0653.5,30.9
2021-03-17T17:07:00Z,00040200,01000000,0000.89,0000.32,0000.29,-000.40,0000.08,0000.00,-000.05,-000.23,0000.38,17.4,24.3,01.8,01.2,0653.5,30.9
2021-03-17T17:08:00Z,00040200,01000000,0000.22,0000.33,0000.38,-000.22,-000.10,0000.05,0000.22,-000.04,0000.24,17.4,24.3,01.8,01.2,0653.4,30.9
2021-03-17T17:09:00Z,00040200,01000000,0000.46,0000.35,0000.43,-000.37,0000.19,0000.17,-000.01,0000.27,0000.43,17.4,24.3,01.9,01.2,0653.4,30.9
2021-03-17T17:10:00Z,00040200,01000000,0000.41,0000.23,0000.07,-000.29,0000.04,0000.02,0000.04,0000.17,-000.11,17.5,24.3,01.8,01.2,0653.3,30.9
2021-03-17T17:11:00Z,00040200,00000000,0000.61,0000.20,0000.29,-000.43,0000.11,-000.10,0000.31,-000.24,-000.00,17.6,24.3,01.9,01.3,0653.3,30.9
2021-03-17T17:12:00Z,00040200,01000000,0000.54,0000.25,0000.04,-000.78,-000.11,0000.10,-000.15,0000.42,-000.14,17.6,24.3,01.9,01.2,0653.3,30.9
2021-03-17T17:13:00Z,00040200,01000000,0000.55,0000.30,-000.10,0000.02,-000.07,-000.12,-000.13,0000.14,0000.02,17.6,24.3,01.8,01.2,0653.3,31.0
2021-03-17T17:14:00Z,00040200,01000000,0000.39,0000.25,0000.27,0000.21,0000.19,0000.14,-000.01,-000.58,0000.03,17.6,24.3,01.9,01.2,0653.2,30.9
2021-03-17T17:15:00Z,00040200,01000000,0000.47,0000.33,0000.36,0000.20,0000.04,0000.14,0000.30,0000.47,0000.11,17.6,24.3,01.9,01.2,0653.2,30.9
2021-03-17T17:16:00Z,00040200,00000000,0000.62,0000.05,0000.30,0000.08,0000.23,0000.21,0000.05,0000.34,-000.00,17.6,24.3,01.8,01.2,0653.2,30.9
2021-03-17T17:17:00Z,00040200,01000000,0000.49,0000.40,0000.34,-000.39,0000.05,0000.21,0000.46,-000.15,0000.36,17.6,24.3,02.0,01.3,0653.2,30.9
2021-03-17T17:18:00Z,00040200,01000000,0000.58,-000.17,-000.16,-000.40,-000.21,-000.04,-000.21,-000.05,-000.13,17.6,24.3,01.9,01.3,0653.2,30.9
2021-03-17T17:19:00Z,00040200,00000000,0000.02,0000.23,0000.15,-000.24,0000.10,0000.18,0000.30,0000.38,0000.20,17.6,24.3,01.9,01.3,0653.2,30.9
2021-03-17T17:20:00Z,00040200,01000000,0000.32,-000.22,-000.06,-000.13,0000.04,0000.14,0000.07,0000.15,0000.06,17.6,24.3,02.0,01.3,0653.1,30.9
2021-03-17T17:21:00Z,00040200,01000000,-000.06,0000.42,0000.06,-000.29,0000.01,-000.24,0000.16,0000.36,0000.24,17.5,24.3,02.0,01.3,0653.1,30.9
2021-03-17T17:22:00Z,00040200,00000000,0000.54,0000.21,0000.05,-000.30,-000.06,0000.02,0000.04,0000.23,0000.20,17.5,24.3,02.1,01.4,0653.0,30.9
2021-03-17T17:23:00Z,00040200,00000000,0000.89,0000.23,0000.16,-000.53,-000.09,0000.15,0000.48,0000.06,-000.01,17.5,24.3,02.3,01.5,0653.0,30.9
2021-03-17T17:24:00Z,00040200,00000000,0000.08,0000.25,-000.03,-000.07,0000.10,0000.17,0000.45,0000.47,0000.34,17.5,24.3,02.3,01.5,0653.0,30.9
2021-03-17T17:25:00Z,00040200,00000000,0000.55,0000.29,0000.23,-000.47,0000.10,-000.04,-000.42,-000.31,-000.14,17.5,24.3,02.2,01.5,0652.9,30.9
2021-03-17T17:26:00Z,00040200,00000000,0000.91,0000.14,0000.32,-000.08,0000.04,0000.20,0000.00,0000.08,0000.15,17.5,24.3,02.2,01.5,0652.9,30.9
2021-03-17T17:27:00Z,00040200,00000000,0000.35,0000.42,0000.28,-000.26,0000.00,0000.23,0000.20,-000.11,0000.15,17.5,24.3,02.3,01.5,0652.9,30.9
2021-03-17T17:28:00Z,00040200,00000000,0000.15,0000.22,0000.07,0000.01,-000.04,-000.03,0000.05,-000.16,-000.39,17.5,24.3,02.2,01.4,0652.9,30.9
2021-03-17T17:29:00Z,00040200,00000000,0000.41,0000.29,0000.28,-000.17,-000.04,0000.04,-000.06,0000.16,0000.56,17.5,24.3,02.2,01.5,0652.9,30.9
2021-03-17T17:30:00Z,00040200,00000000,0000.28,0000.05,0000.10,-000.50,-000.19,0000.18,0000.22,0000.29,-000.29,17.5,24.3,02.2,01.4,0652.9,30.9
2021-03-17T17:31:00Z,00040200,00000000,0000.47,0000.19,0000.07,-000.03,0000.17,0000.27,-000.05,-000.08,0000.38,17.5,24.2,02.2,01.5,0652.9,30.9
2021-03-17T17:32:00Z,00040200,00000000,0000.24,0000.25,0000.26,0000.19,-000.00,0000.01,-000.06,0000.07,-000.13,17.5,24.2,02.1,01.4,0652.8,30.9
2021-03-17T17:33:00Z,00040200,00000000,0000.27,0000.14,0000.24,-000.20,0000.18,-000.05,0000.13,-000.24,-000.34,17.5,24.2,02.2,01.4,0652.8,30.9
2021-03-17T17:34:00Z,00040200,00000000,0000.42,0000.26,-000.17,0000.09,0000.27,-000.01,-000.09,0000.18,0000.02,17.5,24.2,02.2,01.4,0652.8,30.9
2021-03-17T17:35:00Z,00040200,01000000,0000.18,0000.14,0000.12,-000.05,-000.03,0000.01,-000.09,-000.10,0000.19,17.5,24.2,02.1,01.4,0652.8,30.9
2021-03-17T17:36:00Z,00040200,00000000,-000.03,0000.21,0000.28,-000.07,0000.23,0000.13,-000.19,-000.49,-000.25,17.5,24.2,02.1,01.4,0652.8,30.9
2021-03-17T17:37:00Z,00040200,00000000,0000.45,0000.42,-000.10,-000.04,-000.02,-000.05,0000.07,0000.48,-000.17,17.5,24.2,02.0,01.3,0652.8,30.9
2021-03-17T17:38:00Z,00040200,01000000,0000.86,0000.05,0000.31,-000.44,0000.06,-000.08,-000.31,-000.24,0000.14,17.5,24.2,02.0,01.3,0652.8,30.9
2021-03-17T17:39:00Z,00040200,01000000,0000.49,0000.34,0000.44,-000.24,-000.18,0000.01,0000.22,0000.13,0000.19,17.5,24.2,02.0,01.3,0652.8,30.9
2021-03-17T17:40:00Z,00040200,00000000,0000.30,0000.45,0000.05,-000.14,-000.05,-000.06,0000.03,-000.17,-000.04,17.5,24.2,01.9,01.3,0652.9,30.9
2021-03-17T17:41:00Z,00040200,00000000,0000.06,0000.41,0000.28,-000.23,0000.40,-000.05,-000.25,0000.25,-000.16,17.4,24.2,02.0,01.3,0652.9,30.9
2021-03-17T17:42:00Z,00040200,00000000,0000.17,0000.31,0000.23,0000.23,0000.36,0000.08,0000.50,0000.02,0000.47,17.5,24.2,02.0,01.3,0653.0,30.9
2021-03-17T17:43:00Z,00040200,00000000,0000.40,0000.24,0000.36,-000.29,-000.09,-000.08,-000.41,-000.13,-000.33,17.4,24.2,02.1,01.4,0652.9,31.0
2021-03-17T17:44:00Z,00040200,00000000,0000.75,0000.36,0000.07,0000.08,0000.11,-000.14,0000.51,0000.32,0000.37,17.4,24.2,02.0,01.3,0652.9,31.0
2021-03-17T17:45:00Z,00040200,00000000,0000.20,0000.41,0000.29,-000.08,0000.01,0000.18,-000.10,0000.08,0000.18,17.4,24.2,02.1,01.4,0652.9,30.9
2021-03-17T17:46:00Z,00040200,00000000,0000.70,0000.07,0000.15,-000.37,0000.20,0000.03,0000.29,-000.01,-000.07,17.4,24.2,02.1,01.4,0652.8,30.9
2021-03-17T17:47:00Z,00040200,00000000,0000.20,0000.18,0000.28,0000.30,0000.03,0000.24,0000.29,0000.37,-000.03,17.4,24.2,02.2,01.4,0652.9,30.9
2021-03-17T17:48:00Z,00040200,00000000,-000.15,0000.25,0000.47,-000.09,-000.08,0000.20,-000.16,0000.25,-000.06,17.4,24.2,02.1,01.4,0652.9,30.9
2021-03-17T17:49:00Z,00040200,00000000,0000.60,0000.21,0000.28,0000.13,0000.19,0000.16,-000.06,-000.11,0000.17,17.4,24.2,02.1,01.4,0652.9,30.9
2021-03-17T17:50:00Z,00040200,00000000,-000.06,0000.55,0000.17,-000.60,0000.23,-000.03,0000.28,0000.02,-000.06,17.4,24.2,02.1,01.4,0652.9,30.9
2021-03-17T17:51:00Z,00040200,00000000,-000.12,0000.25,0000.33,-000.34,-000.04,0000.16,0000.04,0000.01,0000.23,17.4,24.2,02.1,01.4,0652.9,30.9
2021-03-17T17:52:00Z,00040200,00000000,0001.13,0000.24,0000.23,0000.23,-000.05,-000.05,-000.01,-000.08,0000.11,17.4,24.2,02.2,01.5,0652.9,30.9
2021-03-17T17:53:00Z,00040200,00000000,0000.14,0000.25,0000.15,-000.13,0000.16,0000.04,-000.08,-000.01,-000.09,17.4,24.2,02.1,01.4,0652.9,30.9
2021-03-17T17:54:00Z,00040200,00000000,0000.17,0000.43,-000.05,-000.23,-000.05,0000.03,0000.19,0000.27,0000.37,17.4,24.2,02.1,01.4,0652.9,30.9
2021-03-17T17:55:00Z,00040200,00000000,0000.44,0000.41,0000.04,0000.17,0000.08,0000.04,-000.24,-000.02,-000.22,17.5,24.2,02.2,01.5,0652.8,31.0
2021-03-17T17:56:00Z,00040200,01000000,0000.10,0000.17,0000.16,-000.02,0000.01,-000.18,0000.63,0000.43,0000.58,17.6,24.2,02.1,01.4,0652.9,30.9
2021-03-17T17:57:00Z,00040200,40000000,,,,,,,-000.09,0000.17,-000.17,17.6,24.3,02.3,01.5,0653.0,30.9
2021-03-17T17:58:00Z,00040200,60000000,,,,,,,0000.01,-000.45,-000.06,17.4,24.3,02.1,01.4,0651.9,30.9
2021-03-17T17:59:00Z,00040200,20000000,,,,,,,0000.14,0000.11,-000.04,17.4,24.4,02.0,01.3,0651.9,30.9
